Vorticity
3 4 5 5 5 5 4 3 2 3 6 9 9 8 6 8 10 9 9 10 10 9 8 8 9 8 5 4 5 5 5 4 4 2 2 4 6 6 6 5 7 12 8
3 3 5 3 2 2 6 7 10 9 10 9 9 7 5 4 5 7 7 6 4 4 8 10 7 6 5 5 7 8 9 7 6 5 6 5 5 3 6 6 4 3 6
4 5 3 5 9 14 12 11 11 7 6 6 5 7 9 9 9 8 8 7 7 7 7 6 7 8 11 12 12 12 8 6 6 6 6 6 10 6 3 4 6 5 4
5 8 8 14 10 9 6 5 5 5 5 5 5 4 4 4 4 5 5 5 4 4 3 4 3 3 4 3 3 4 5 6 5 8 8 11 0 5 9 6 3 4 7
9 12 15 8 7 5 5 4 4 4 4 5 5 5 5 5 5 4 4 4 4 4 4 4 4 4 4 4 4 5 5 3 3 2 3 5 3 11 6 9 7 4 5
14 11 8 5 5 4 3 4 4 3 4 4 4 4 5 5 5 4 4 5 5 5 5 5 5 5 4 5 5 5 6 6 5 5 4 4 5 10 -8 5 12 2 6
12 7 4 4 4 4 3 3 4 3 3 3 3 4 5 5 5 5 6 7 7 8 9 7 6 8 8 8 7 7 7 6 4 4 4 4 3 4 5 4 1 4 8
8 4 4 5 4 3 4 4 3 3 2 3 3 3 5 6 7 6 5 6 6 5 1 -1 1 3 6 3 4 4 5 5 8 9 9 6 6 7 6 3 8 6 5
4 3 4 4 4 3 3 3 3 3 2 4 5 6 6 7 8 3 -0 1 1 3 1 1 2 4 3 0 0 1 2 1 2 2 2 5 9 8 7 6 5 4 3
4 2 4 4 4 5 4 3 3 3 6 7 6 6 6 7 8 3 1 3 2 3 3 4 3 2 2 2 3 3 4 6 6 4 5 4 3 0 1 6 10 6 7
4 3 3 4 4 5 3 4 5 5 6 7 6 6 4 4 3 3 4 4 4 4 5 5 6 6 6 5 4 3 4 4 2 2 4 4 6 8 6 2 2 6 10
5 3 4 3 4 4 4 4 4 7 7 5 4 4 3 3 3 3 4 5 6 5 6 6 6 5 5 5 5 5 5 4 3 3 4 3 3 -1 3 10 6 2 4
4 3 4 3 5 4 4 4 6 5 4 3 3 4 4 4 5 5 5 5 5 5 4 5 6 4 3 3 4 4 4 5 5 6 6 1 -6 2 9 14 10 8 3
7 3 3 5 5 5 7 6 7 4 3 4 4 4 4 4 4 4 5 4 4 5 4 3 3 4 5 7 7 5 7 7 5 11 3 -0 5 11 15 12 8 10 13
5 3 4 4 5 5 2 4 5 4 3 3 3 2 3 5 6 5 5 4 3 4 3 3 3 4 5 5 6 6 8 5 1 10 13 12 13 12 10 6 4 5 9
3 4 5 5 3 2 3 4 4 5 4 4 4 4 4 6 6 6 5 5 5 5 5 5 6 4 9 12 12 11 10 11 17 17 13 15 13 10 8 10 8 8 9
4 6 4 3 3 3 5 5 6 6 4 4 5 5 6 6 5 5 4 5 6 4 1 5 15 21 18 13 8 5 7 5 12 13 10 12 13 11 10 8 8 7 7
5 5 5 4 4 4 4 4 6 5 4 4 5 5 6 6 4 4 5 7 6 -1 15 19 13 6 4 4 10 10 9 13 18 15 12 14 11 10 11 14 14 8 7
6 5 6 5 5 6 6 5 4 5 6 5 5 5 6 4 3 5 7 4 -1 16 17 12 4 8 10 10 9 9 14 18 16 17 16 18 19 19 19 24 20 22 22
3 5 5 5 5 4 5 5 4 5 5 5 6 6 5 4 7 9 2 4 15 14 8 7 7 10 9 12 13 12 10 11 15 18 15 9 2 -1 3 2 2 4 7
2 4 4 5 6 4 3 3 5 5 5 7 6 5 5 7 6 2 9 11 10 7 5 9 9 10 13 14 8 12 20 11 -2 -1 5 7 5 6 7 9 10 6 5
6 6 4 6 6 7 7 7 5 6 8 5 5 6 7 2 5 9 6 7 6 5 9 11 12 13 14 9 22 5 2 4 3 1 2 2 0 -1 0 3 3 3 2
7 7 6 6 8 6 6 6 8 7 5 7 7 2 3 9 11 9 7 6 6 8 13 11 13 19 19 21 2 2 3 2 2 4 4 3 4 5 5 2 3 4 4
10 8 8 8 8 8 7 8 5 4 7 5 -2 9 11 11 7 6 7 8 8 10 11 10 17 17 10 1 -1 2 3 2 3 1 -3 3 3 3 3 6 5 6 5
7 6 5 4 5 7 7 4 5 7 7 -3 7 14 7 6 7 9 8 7 10 12 11 14 22 10 0 -1 2 1 -0 1 3 4 3 1 5 7 7 6 5 4 5
11 9 8 8 7 5 6 8 7 9 1 4 13 7 6 10 10 8 8 10 12 11 12 16 7 2 -1 -0 1 2 1 1 3 7 8 7 6 8 10 8 7 7 7
Height
5853 5853 5852 5851 5851 5851 5850 5850 5850 5849 5848 5847 5847 5846 5846 5845 5845 5844 5843 5841 5840 5838 5836 5835 5834 5834 5832 5832 5832 5831 5830 5828 5827 5825 5824 5823 5822 5820 5818 5816 5815 5815 5814
5855 5854 5852 5853 5853 5852 5852 5851 5851 5850 5850 5849 5848 5848 5847 5845 5845 5844 5843 5841 5840 5838 5837 5835 5834 5834 5833 5833 5833 5832 5830 5828 5827 5826 5824 5823 5822 5820 5818 5817 5815 5815 5815
5857 5855 5853 5853 5853 5853 5853 5852 5852 5852 5851 5851 5850 5849 5848 5847 5846 5845 5844 5842 5841 5840 5837 5835 5834 5835 5835 5835 5834 5833 5830 5828 5826 5825 5824 5823 5821 5819 5818 5817 5815 5815 5813
5857 5856 5855 5854 5855 5855 5854 5854 5853 5853 5853 5852 5851 5850 5849 5848 5847 5846 5845 5844 5843 5841 5839 5837 5836 5836 5836 5834 5833 5832 5829 5827 5824 5824 5822 5821 5819 5818 5817 5816 5814 5813 5813
5857 5856 5856 5857 5857 5856 5856 5856 5856 5855 5855 5854 5853 5852 5851 5849 5848 5847 5846 5845 5843 5841 5840 5838 5836 5835 5835 5833 5832 5831 5829 5827 5823 5821 5820 5820 5817 5816 5815 5814 5813 5812 5811
5858 5858 5858 5858 5859 5859 5858 5858 5858 5857 5856 5855 5854 5852 5851 5850 5848 5847 5846 5845 5843 5841 5840 5838 5837 5835 5834 5833 5831 5830 5829 5827 5823 5821 5820 5818 5816 5814 5813 5812 5810 5809 5808
5860 5859 5859 5860 5860 5860 5860 5860 5859 5858 5858 5857 5855 5853 5852 5850 5849 5848 5846 5844 5843 5841 5840 5837 5836 5835 5833 5832 5830 5828 5826 5825 5823 5820 5818 5816 5815 5813 5811 5810 5808 5807 5806
5862 5862 5862 5862 5861 5861 5860 5860 5859 5859 5858 5857 5855 5853 5852 5850 5849 5847 5846 5845 5843 5840 5839 5836 5835 5834 5832 5830 5828 5827 5825 5822 5821 5819 5817 5815 5813 5811 5809 5807 5806 5804 5803
5863 5862 5862 5864 5864 5863 5862 5861 5860 5859 5859 5857 5855 5853 5851 5850 5848 5847 5845 5844 5842 5840 5837 5835 5833 5832 5830 5828 5826 5824 5822 5821 5819 5816 5814 5812 5810 5808 5806 5805 5803 5801 5799
5862 5862 5862 5861 5863 5863 5862 5861 5860 5859 5858 5857 5855 5853 5851 5850 5848 5847 5844 5843 5840 5838 5835 5832 5830 5828 5827 5825 5822 5820 5817 5816 5814 5813 5811 5808 5806 5805 5802 5800 5799 5797 5795
5862 5862 5862 5861 5861 5861 5861 5861 5860 5858 5857 5855 5854 5852 5850 5848 5846 5845 5843 5840 5838 5835 5832 5830 5828 5825 5823 5821 5819 5816 5814 5811 5808 5806 5804 5803 5802 5800 5798 5796 5794 5792 5790
5862 5862 5863 5863 5862 5861 5860 5858 5858 5857 5856 5854 5853 5851 5849 5847 5845 5842 5840 5837 5835 5832 5829 5827 5824 5821 5818 5816 5814 5811 5808 5805 5803 5800 5797 5794 5794 5793 5791 5790 5788 5786 5784
5860 5862 5863 5863 5863 5862 5860 5859 5857 5856 5854 5853 5852 5850 5847 5845 5843 5840 5837 5834 5831 5828 5825 5822 5819 5816 5813 5810 5808 5804 5802 5799 5796 5793 5791 5788 5785 5783 5781 5780 5780 5779 5777
5861 5860 5860 5862 5861 5861 5860 5858 5856 5855 5853 5852 5850 5848 5845 5843 5840 5837 5834 5831 5827 5824 5821 5817 5815 5811 5807 5804 5800 5797 5794 5791 5788 5786 5783 5779 5776 5774 5772 5770 5769 5768 5768
5860 5860 5859 5858 5858 5857 5856 5855 5853 5852 5851 5849 5848 5845 5842 5840 5837 5833 5830 5826 5823 5819 5816 5812 5808 5804 5800 5796 5792 5788 5784 5780 5776 5774 5772 5770 5767 5764 5762 5759 5758 5758 5757
5857 5858 5858 5857 5855 5854 5853 5852 5851 5849 5848 5845 5844 5841 5838 5835 5832 5829 5825 5822 5818 5813 5809 5804 5800 5795 5791 5787 5782 5779 5775 5772 5768 5764 5761 5759 5757 5754 5751 5748 5747 5746 5746
5856 5856 5855 5854 5854 5853 5853 5851 5849 5847 5845 5842 5840 5837 5834 5831 5827 5824 5820 5817 5812 5808 5803 5797 5791 5785 5781 5778 5774 5771 5767 5763 5759 5756 5753 5750 5748 5745 5742 5739 5736 5734 5734
5854 5853 5852 5852 5852 5851 5850 5849 5847 5845 5843 5840 5836 5833 5830 5826 5823 5819 5815 5810 5806 5801 5795 5789 5782 5777 5772 5767 5764 5759 5756 5752 5748 5746 5743 5741 5739 5737 5733 5730 5728 5726 5724
5850 5850 5849 5849 5849 5848 5848 5846 5844 5842 5839 5836 5831 5828 5825 5821 5817 5813 5808 5803 5799 5794 5789 5784 5778 5772 5765 5758 5752 5749 5745 5743 5739 5736 5734 5732 5730 5728 5726 5723 5721 5719 5717
5847 5847 5846 5846 5845 5845 5844 5842 5840 5837 5834 5832 5827 5823 5820 5816 5811 5806 5801 5796 5791 5787 5782 5778 5772 5766 5759 5753 5747 5742 5738 5735 5733 5730 5727 5725 5724 5723 5721 5718 5715 5713 5711
5843 5843 5843 5842 5842 5841 5839 5838 5835 5832 5829 5826 5822 5818 5814 5809 5805 5799 5793 5788 5784 5779 5775 5769 5763 5757 5751 5747 5743 5737 5732 5729 5726 5725 5721 5718 5716 5713 5711 5710 5708 5706 5704
5839 5839 5839 5838 5837 5836 5835 5834 5831 5826 5822 5820 5815 5811 5808 5803 5798 5792 5786 5780 5776 5771 5767 5761 5755 5748 5744 5741 5738 5735 5733 5729 5722 5718 5714 5711 5708 5705 5701 5697 5696 5694 5693
5835 5835 5834 5834 5833 5831 5829 5828 5825 5821 5817 5813 5809 5804 5799 5795 5790 5784 5778 5773 5768 5763 5758 5752 5746 5741 5736 5733 5731 5728 5725 5723 5721 5717 5711 5705 5699 5695 5692 5686 5682 5681 5679
5831 5830 5829 5828 5827 5826 5824 5822 5819 5816 5812 5807 5802 5797 5792 5787 5782 5776 5770 5765 5760 5754 5749 5743 5737 5733 5730 5727 5724 5720 5716 5712 5707 5705 5701 5696 5691 5685 5679 5674 5666 5662 5662
5827 5825 5823 5822 5822 5820 5818 5816 5813 5810 5806 5802 5796 5790 5785 5780 5774 5769 5763 5757 5751 5745 5740 5735 5730 5726 5723 5720 5717 5713 5707 5701 5695 5689 5685 5679 5675 5670 5662 5657 5653 5647 5640
5822 5821 5819 5817 5816 5814 5811 5809 5806 5802 5799 5795 5789 5784 5779 5774 5768 5762 5755 5749 5744 5739 5734 5728 5724 5721 5717 5713 5707 5701 5695 5689 5682 5674 5668 5662 5657 5651 5646 5638 5629 5626 5624